TimePDT,TemperatureF,Dew PointF,Humidity,Sea Level PressureIn,VisibilityMPH,Wind Direction,Wind SpeedMPH,Gust SpeedMPH,PrecipitationIn,Events,Conditions,WindDirDegrees,DateUTC
12:55 AM,69.1,63.0,81,29.87,10.0,West,5.8,-,N/A,,Clear,280,2013-09-03 07:55:00
1:55 AM,68.0,62.1,81,29.87,10.0,SW,3.5,-,N/A,,Clear,220,2013-09-03 08:55:00
2:55 AM,66.9,62.1,84,29.87,10.0,Calm,Calm,-,N/A,,Clear,0,2013-09-03 09:55:00
3:55 AM,66.9,62.1,84,29.87,10.0,Calm,Calm,-,N/A,,Clear,0,2013-09-03 10:55:00
4:55 AM,66.0,62.1,87,29.87,10.0,Calm,Calm,-,N/A,,Clear,0,2013-09-03 11:55:00
5:55 AM,66.9,62.1,84,29.88,10.0,Calm,Calm,-,N/A,,Clear,0,2013-09-03 12:55:00
6:55 AM,66.0,62.1,87,29.89,10.0,Calm,Calm,-,N/A,,Clear,0,2013-09-03 13:55:00
7:55 AM,69.1,63.0,81,29.90,10.0,Calm,Calm,-,N/A,,Clear,0,2013-09-03 14:55:00
8:55 AM,73.0,64.0,73,29.91,10.0,SW,4.6,-,N/A,,Clear,220,2013-09-03 15:55:00
9:55 AM,77.0,64.9,66,29.92,10.0,Calm,Calm,-,N/A,,Clear,0,2013-09-03 16:55:00
10:55 AM,82.0,64.9,56,29.92,10.0,SW,5.8,-,N/A,,Clear,230,2013-09-03 17:55:00
11:55 AM,81.0,64.0,56,29.92,10.0,WSW,6.9,-,N/A,,Clear,250,2013-09-03 18:55:00
12:55 PM,81.0,64.0,56,29.91,10.0,West,9.2,-,N/A,,Clear,260,2013-09-03 19:55:00
1:55 PM,84.0,64.0,51,29.89,10.0,West,8.1,-,N/A,,Clear,260,2013-09-03 20:55:00
2:55 PM,84.9,64.0,49,29.88,10.0,WSW,9.2,-,N/A,,Clear,250,2013-09-03 21:55:00
3:55 PM,82.0,63.0,52,29.87,10.0,WSW,6.9,-,N/A,,Clear,250,2013-09-03 22:55:00
4:55 PM,81.0,63.0,54,29.86,10.0,West,8.1,-,N/A,,Clear,260,2013-09-03 23:55:00
5:55 PM,80.1,63.0,56,29.85,10.0,WSW,4.6,-,N/A,,Clear,240,2013-09-04 00:55:00
6:55 PM,78.1,61.0,56,29.84,10.0,WSW,4.6,-,N/A,,Clear,250,2013-09-04 01:55:00
7:55 PM,73.0,61.0,66,29.86,10.0,West,4.6,-,N/A,,Clear,270,2013-09-04 02:55:00
8:55 PM,72.0,61.0,68,29.87,10.0,Calm,Calm,-,N/A,,Clear,0,2013-09-04 03:55:00
9:55 PM,71.1,61.0,70,29.88,10.0,West,4.6,-,N/A,,Clear,270,2013-09-04 04:55:00
10:55 PM,70.0,61.0,73,29.88,10.0,WNW,4.6,-,N/A,,Clear,290,2013-09-04 05:55:00
11:55 PM,69.1,61.0,75,29.89,10.0,WNW,4.6,-,N/A,,Clear,290,2013-09-04 06:55:00